Bradshaw AFB, HI

12:01 PM HST on November 13, 2019 (GMT -1000)
Bradshaw Army Air Field

Weather History for PHSF - September, 2019

Change the Weather History Date:

Thursday, September 5, 2019

  Actual Average Record
Temperature  
Mean Temperature 66 °F -  
Max Temperature 76 °F 70 °F 76 °F (2018)
Min Temperature 55 °F 50 °F 46 °F (1997)
Cooling Degree Days 2    
Growing Degree Days 16 (Base 50)    
Moisture  
Dew Point 51 °F    
Average Humidity 57    
Maximum Humidity 95    
Minimum Humidity 29    
Precipitation  
Precipitation 0.00 in - - ()
Sea Level Pressure  
Sea Level Pressure 29.95 in    
Wind  
Wind Speed 7 mph (SSW)    
Max Wind Speed 10 mph    
Max Gust Speed -    
Visibility 10 miles    
Events Rain    
Averages and records for this station are not official NWS values.
T = Trace of Precipitation, MM = Missing Value Source: NWS Daily Summary

Daily Weather History Graph

Daily Weather History Graph

Search for Another Location

Airport or City:

Astronomy

Sep. 05, 2019 Rise Set
Actual Time 6:07 AM HST 6:33 PM HST
Civil Twilight 5:45 AM HST 6:55 PM HST
Nautical Twilight 5:19 AM HST 7:21 PM HST
Astronomical Twilight 4:53 AM HST 7:48 PM HST
Moon 12:31 PM HST (9/5) 11:54 PM HST (9/5)
Length of Visible Light 13h 10m
Length of Day
12h 26m
Waxing Crescent, 48% of the Moon is Illuminated
Sep 5
Waxing Crescent
Sep 5
First Quarter
Sep 13
Full
Sep 21
Last Quarter
Sep 28
New

Hourly Weather History & Observations

Time (HST) Temp. Dew Point Humidity Pressure Visibility Wind Dir Wind Speed Gust Speed Precip Events Conditions
12:56 AM 57.6 °F 55.0 °F 91% 29.97 in 10.0 mi SE 3.5 mph - N/A   Mostly Cloudy
1:56 AM 60.6 °F 43.9 °F 54% 29.96 in 10.0 mi SE 6.9 mph - N/A   Mostly Cloudy
2:56 AM 63.0 °F 43.3 °F 49% 29.94 in 10.0 mi SE 8.1 mph - N/A   Overcast
3:56 AM 63.0 °F 48.2 °F 59% 29.93 in 10.0 mi SSE 8.1 mph - N/A   Mostly Cloudy
4:56 AM 61.5 °F 41.0 °F 47% 29.95 in 10.0 mi SE 5.8 mph - N/A   Mostly Cloudy
5:56 AM 57.7 °F 40.5 °F 53% 29.99 in 10.0 mi SE 6.9 mph - N/A   Partly Cloudy
6:56 AM 63.0 °F 40.8 °F 44% 29.97 in 10.0 mi ESE 3.5 mph - N/A   Clear
7:56 AM 69.3 °F 44.8 °F 41% 29.96 in 10.0 mi South 8.1 mph - N/A   Partly Cloudy
8:56 AM 73.8 °F 39.2 °F 29% 29.96 in 10.0 mi SSE 8.1 mph - N/A   Partly Cloudy
9:56 AM 74.8 °F 45.5 °F 35% 29.95 in 10.0 mi SW 6.9 mph - N/A   Clear
10:56 AM 76.3 °F 53.4 °F 45% 29.94 in 10.0 mi WSW 6.9 mph - N/A   Clear
11:56 AM 73.4 °F 56.3 °F 55% 29.96 in 10.0 mi WSW 8.1 mph - N/A   Mostly Cloudy
12:41 PM 71.6 °F 57.2 °F 60% 29.95 in 10.0 mi WSW 8.1 mph - N/A   Mostly Cloudy
12:46 PM 71.6 °F 57.2 °F 60% 29.95 in 10.0 mi WSW 8.1 mph - N/A   Mostly Cloudy
12:56 PM 70.7 °F 57.4 °F 63% 29.95 in 10.0 mi West 6.9 mph - N/A   Mostly Cloudy
1:26 PM 73.4 °F 59.0 °F 61% 29.93 in 10.0 mi WSW 5.8 mph - N/A   Mostly Cloudy
1:36 PM 73.4 °F 57.2 °F 57% 29.92 in 10.0 mi West 9.2 mph - N/A   Mostly Cloudy
1:41 PM 71.6 °F 57.2 °F 60% 29.92 in 10.0 mi West 9.2 mph - N/A Rain Light Rain Showers
1:46 PM 71.6 °F 59.0 °F 64% 29.92 in 10.0 mi West 6.9 mph - N/A Rain Light Rain Showers
1:56 PM 68.9 °F 58.1 °F 68% 29.93 in 10.0 mi West 10.4 mph - N/A Rain Light Rain Showers
2:01 PM 68.0 °F 59.0 °F 73% 29.93 in 10.0 mi West 10.4 mph - N/A Rain Light Rain Showers
8:56 PM 55.6 °F 54.1 °F 95% 29.98 in - North - - N/A   Clear
10:56 PM - - N/A% - - North - - N/A   Partly Cloudy
11:56 PM - - N/A% - - ESE 5.8 mph - N/A   Unknown